Regional Weather Roundup
Issued by NWS

Home | Current Version | Previous Version | Text Only | Print | Product List | Glossary On
Versions: 1 2 3 4 5 6 7 8 9 10 11 12 13 14 15 16 17 18 19 20 21 22 23 24 25 26 27 28 29 30 31 32 33 34 35 36 37 38 39 40 41 42 43 44 45 46 47 48 49 50
713
ASUS43 KDTX 251601
RWRMI
MICHIGAN HOURLY REGIONAL WEATHER ROUNDUP
NATIONAL WEATHER SERVICE DETROIT/PONTIAC MI
1200 PM EDT WED APR 25 2018

NOTE: "FAIR" INDICATES FEW OR NO CLOUDS BELOW 12,000 FEET WITH NO
SIGNIFICANT WEATHER AND/OR OBSTRUCTION TO VISIBILITY.

MIZ047>049-052>055-059>063-066>070-074>076-081>083-251700-
SOUTHEAST LOWER MICHIGAN

CITY           SKY/WX    TMP DP  RH WIND       PRES   REMARKS
ADRIAN         FAIR      54  45  71 N13G22    29.97S
ANN ARBOR      FAIR      54  44  69 NW13      29.94F
BAD AXE        CLOUDY    44  39  85 N15G22    29.98S
CARO           CLOUDY    46  40  81 N9G16     29.98S
DETROIT CITY   FAIR      52  43  71 N10       29.94S
DETROIT        PTSUNNY   54  42  64 N12       29.94F
FLINT          CLOUDY    53  42  66 N12       29.97F
GROSSE ILE     CLOUDY    52  46  79 N13       29.93S
HILLSDALE      FAIR      52  39  62 NW13      29.97S
HOWELL         FAIR      53  42  65 N13G18    29.96F

CITY           SKY/WX    TMP DP  RH WIND       PRES   REMARKS
JACKSON        FAIR      54  39  57 NW13G18   29.97F
LAMBERTVILLE   CLOUDY    54  47  77 N10G17    29.95S
LANSING        PTSUNNY   54  40  59 N10G22    29.99F
LAPEER         CLOUDY    47  41  79 N10G17    29.97S
MASON          FAIR      55  38  54 N13G18    29.98S
MONROE         CLOUDY    53  46  78 N10G16    29.93F
MT. CLEMENS    PTSUNNY   50  50 100 NW16      29.92F
PONTIAC        PTSUNNY   51  42  71 NW15G21   29.94S
PORT HOPE        N/A     39  38  96 NW14G22   29.96R WCI  31
PORT HURON     CLOUDY    46  41  81 NW10      29.94S
TRI CITIES     CLOUDY    51  40  65 N13       29.99F
MIDLAND        CLOUDY    50  38  64 N9        29.99F
TROY           FAIR      52  44  73 NW12G17   29.95F
SAGINAW HB     CLOUDY    48  41  76 N10       29.98F
$$
MIZ043>046-050>051-056>058-064>065-071>073-077>080-251700-
SOUTHWEST LOWER MICHIGAN

CITY           SKY/WX    TMP DP  RH WIND       PRES   REMARKS
BATTLE CREEK   FAIR      56  39  53 N12       30.00F
BENTON HARBOR  FAIR      44  35  70 N10G17    30.07S
BIG RAPIDS     FAIR      49  30  47 N12G18    30.02F
COLDWATER      FAIR      56  38  50 NW10G18   29.99S
HOLLAND        FAIR      51  34  52 NW13G20   30.04F
GRAND RAPIDS   FAIR      55  31  39 N15G23    30.01F
IONIA          FAIR      53  34  47 NW15      29.99F
KALAMAZOO      FAIR      56  37  49 N10       30.02S
LUDINGTON      FAIR      43  35  73 N15G21    30.09F
MARSHALL       FAIR      55  37  51 NW8       29.98F
MOUNT PLEASANT FAIR      52  36  54 NW10G16   30.00F
MUSKEGON       FAIR      54  29  38 N16G23    30.05F
SOUTH HAVEN    FAIR      45  36  69 NW17      30.06S
$$
MIZ016>042-251700-
NORTHERN LOWER MICHIGAN

CITY           SKY/WX    TMP DP  RH WIND       PRES   REMARKS
ALPENA         LGT RAIN  38  37  97 NW9       30.04R WCI  31
BEAVER ISLAND  CLOUDY    44  32  63 N9        30.10S
BELLAIRE       CLOUDY    43  34  69 N7        30.07F
CADILLAC       CLOUDY    42  35  76 NW7G18    30.04S
CHARLEVOIX     CLOUDY    38  34  84 NW7       30.12S WCI  33
FRANKFORT      CLOUDY    41  32  70 N8        30.11F
GAYLORD        CLOUDY    37  34  89 N8        30.03S WCI  31
GRAYLING       CLOUDY    42  35  75 NW10      30.02S
HARBOR SPRINGS CLOUDY    42  33  70 N9        30.07S
HOUGHTON LAKE  CLOUDY    47  35  63 N14G22    30.01F
MANISTEE       FAIR      43  34  70 NW13G21   30.09F
OSCODA         CLOUDY    42  40  91 N10G17    30.00S
PELLSTON       CLOUDY    42  32  67 N13       30.07F
ROGERS CITY    CLOUDY    37  35  93 NW9       30.06S WCI  30
TRAVERSE CITY  CLOUDY    42  33  70 N13       30.08S
$$
MIZ007>008-015-251700-
EASTERN UPPER MICHIGAN

CITY           SKY/WX    TMP DP  RH WIND       PRES   REMARKS
KINROSS        CLOUDY    40  31  70 NW13      30.07S WCI  32
MACKINAC ISLAN CLOUDY    43  33  67 N10       30.06F
NEWBERRY       CLOUDY    38  30  72 NW9G16    30.10S WCI  32
MUNISING         N/A     36  30  79 N7        30.16S WCI  30
$$
MIZ004>006-011>014-085-251700-
CENTRAL UPPER MICHIGAN

CITY           SKY/WX    TMP DP  RH WIND       PRES   REMARKS
MANISTIQUE     FAIR      44  30  58 N15G21    30.10F
ESCANABA       FAIR      45  25  45 N10G18    30.13F
MENOMINEE      FAIR      44  28  53 N12       30.15F
SAWYER-GWINN   SUNNY     36  25  64 NE14G20   30.15F WCI  27
$$
MIZ001>003-009>011-084-251700-
WESTERN UPPER MICHIGAN

CITY           SKY/WX    TMP DP  RH WIND       PRES   REMARKS
IRON MOUNTAIN  FAIR      42  28  57 N9        30.12F
HOUGHTON       FAIR      37  23  56 NW9       30.17F WCI  30
COPPER HARBOR    N/A     36  27  69 N8        30.19F WCI  30
IRONWOOD       FAIR      39  24  55 CALM      30.19F
$$

ABBREVIATIONS USED IN REMARKS
   TC - TEMPERATURE IN CELSIUS
  WCI - WIND CHILL INDEX
   HX - HEAT INDEX
  VSB - VISIBILITY





USA.gov is the U.S. government's official web portal to all federal, state and local government web resources and services.